EJU59GM EHAM-LDSP

Flight info

Callsign EJU59GM
Flight time 1h 48m
Altitude 37000
Route EDUPO Z739 MISGO DCT ASBON DCT TUSUK DCT UTABA DCT BEMKI DCT ELMEM DCT DIRAB DCT VESAL DCT PEVAL DCT PUL DCT LOS DCT MINTU DCT SAL
Aircraft A320/M-SDE2E3FGHIJ1RWXYZ/LB1

Departure

Time 2026-04-30 06:49
Airport Amsterdam Airport Schiphol (EHAM)

Arrival

Time 2026-04-30 08:38
Airport Split Saint Jerome Airport (LDSP)
Time Latitude Longitude Altitude Speed Heading
2026-04-30 06:21 52.31027 4.75459 -2 ft 0 kts 149°
2026-04-30 06:34 52.31029 4.75457 -2 ft 2 kts 149°
2026-04-30 06:34 52.31044 4.75443 -2 ft 2 kts 149°
2026-04-30 06:35 52.31057 4.75430 -2 ft 2 kts 118°
2026-04-30 06:35 52.31060 4.75408 -3 ft 2 kts 76°
2026-04-30 06:36 52.31056 4.75381 -3 ft 2 kts 76°
2026-04-30 06:36 52.31056 4.75378 -2 ft 0 kts 76°
2026-04-30 06:37 52.31058 4.75390 -2 ft 3 kts 71°
2026-04-30 06:37 52.31082 4.75442 -2 ft 8 kts 53°
2026-04-30 06:37 52.31134 4.75498 -2 ft 10 kts 357°
2026-04-30 06:37 52.31199 4.75491 -2 ft 9 kts 357°
2026-04-30 06:38 52.31258 4.75486 -2 ft 8 kts 357°
2026-04-30 06:38 52.31314 4.75481 -3 ft 8 kts 357°
2026-04-30 06:38 52.31375 4.75475 -3 ft 10 kts 356°
2026-04-30 06:38 52.31448 4.75468 -3 ft 11 kts 357°
2026-04-30 06:39 52.31512 4.75417 -3 ft 11 kts 278°
2026-04-30 06:39 52.31507 4.75286 -3 ft 12 kts 266°
2026-04-30 06:39 52.31502 4.75146 -3 ft 12 kts 266°
2026-04-30 06:39 52.31498 4.75014 -3 ft 11 kts 266°
2026-04-30 06:40 52.31493 4.74890 -3 ft 11 kts 266°
2026-04-30 06:40 52.31489 4.74765 -2 ft 11 kts 266°
2026-04-30 06:40 52.31485 4.74642 -2 ft 10 kts 267°
2026-04-30 06:40 52.31481 4.74529 -2 ft 9 kts 267°
2026-04-30 06:41 52.31478 4.74425 -2 ft 9 kts 267°
2026-04-30 06:41 52.31482 4.74316 -2 ft 10 kts 299°
2026-04-30 06:41 52.31557 4.74294 -2 ft 12 kts
2026-04-30 06:41 52.31648 4.74307 1 ft 17 kts
2026-04-30 06:42 52.31763 4.74318 -3 ft 16 kts
2026-04-30 06:42 52.31908 4.74329 -6 ft 19 kts
2026-04-30 06:42 52.32019 4.74296 -6 ft 15 kts 310°
2026-04-30 06:42 52.32035 4.74134 -6 ft 14 kts 272°
2026-04-30 06:43 52.32038 4.73988 -4 ft 11 kts 271°
2026-04-30 06:43 52.32041 4.73869 -1 ft 14 kts 272°
2026-04-30 06:43 52.32049 4.73707 1 ft 13 kts 275°
2026-04-30 06:43 52.32056 4.73567 1 ft 12 kts 275°
2026-04-30 06:44 52.32063 4.73437 2 ft 12 kts 279°
2026-04-30 06:44 52.32119 4.73309 0 ft 17 kts 319°
2026-04-30 06:44 52.32222 4.73167 -1 ft 21 kts 320°
2026-04-30 06:44 52.32348 4.72991 -4 ft 26 kts 319°
2026-04-30 06:45 52.32490 4.72790 -3 ft 29 kts 319°
2026-04-30 06:45 52.32622 4.72607 -2 ft 25 kts 320°
2026-04-30 06:45 52.32717 4.72450 -1 ft 15 kts 311°
2026-04-30 06:45 52.32782 4.72328 0 ft 15 kts 311°
2026-04-30 06:46 52.32867 4.72171 -3 ft 21 kts 312°
2026-04-30 06:46 52.32969 4.71984 -3 ft 22 kts 309°
2026-04-30 06:46 52.33076 4.71785 -2 ft 25 kts 312°
2026-04-30 06:46 52.33150 4.71606 -1 ft 16 kts 280°
2026-04-30 06:47 52.33110 4.71456 -1 ft 14 kts 223°
2026-04-30 06:47 52.33033 4.71345 -2 ft 17 kts 221°
2026-04-30 06:47 52.32939 4.71209 -3 ft 19 kts 223°
2026-04-30 06:47 52.32873 4.71097 -4 ft 10 kts 239°
2026-04-30 06:48 52.32865 4.70987 -4 ft 9 kts 274°
2026-04-30 06:48 52.32877 4.70902 -3 ft 6 kts 303°
2026-04-30 06:48 52.32913 4.70887 -4 ft 6 kts
2026-04-30 06:48 52.33036 4.70902 -6 ft 48 kts
2026-04-30 06:49 52.33608 4.70955 1 ft 113 kts
2026-04-30 06:49 52.34576 4.71039 1 ft 163 kts
2026-04-30 06:49 52.35735 4.71087 634 ft 162 kts
2026-04-30 06:49 52.36884 4.71133 1230 ft 173 kts 10°
2026-04-30 06:50 52.38128 4.71261 1707 ft 189 kts 13°
2026-04-30 06:50 52.39503 4.71468 2128 ft 210 kts 13°
2026-04-30 06:50 52.41053 4.71708 2407 ft 239 kts 13°
2026-04-30 06:50 52.42708 4.72423 2844 ft 252 kts 33°
2026-04-30 06:51 52.44252 4.73801 3725 ft 254 kts 36°
2026-04-30 06:51 52.45805 4.75239 4635 ft 258 kts 36°
2026-04-30 06:51 52.47159 4.77089 5544 ft 252 kts 58°
2026-04-30 06:51 52.47934 4.79618 6423 ft 249 kts 76°
2026-04-30 06:52 52.48284 4.82428 7168 ft 255 kts 86°
2026-04-30 06:52 52.48384 4.85351 8012 ft 256 kts 89°
2026-04-30 06:52 52.48404 4.88275 8898 ft 258 kts 97°
2026-04-30 06:52 52.47964 4.91138 9712 ft 262 kts 112°
2026-04-30 06:53 52.47034 4.93725 10531 ft 266 kts 125°
2026-04-30 06:53 52.45838 4.96120 11072 ft 280 kts 128°
2026-04-30 06:53 52.44481 4.98584 11364 ft 302 kts 129°
2026-04-30 06:53 52.43016 5.01167 11867 ft 314 kts 130°
2026-04-30 06:54 52.41514 5.03803 12541 ft 319 kts 130°
2026-04-30 06:54 52.39988 5.06482 13250 ft 323 kts 130°
2026-04-30 06:54 52.38469 5.09209 13982 ft 326 kts 129°
2026-04-30 06:54 52.36958 5.12000 14627 ft 330 kts 128°
2026-04-30 06:55 52.35439 5.14841 15238 ft 333 kts 128°
2026-04-30 06:55 52.33910 5.17718 15869 ft 337 kts 128°
2026-04-30 06:55 52.32365 5.20622 16483 ft 340 kts 128°
2026-04-30 06:55 52.30800 5.23549 17083 ft 344 kts 128°
2026-04-30 06:56 52.29216 5.26501 17707 ft 347 kts 128°
2026-04-30 06:56 52.27611 5.29485 18313 ft 351 kts 129°
2026-04-30 06:56 52.25988 5.32492 18883 ft 355 kts 129°
2026-04-30 06:56 52.24345 5.35526 19401 ft 358 kts 129°
2026-04-30 06:57 52.22684 5.38585 19915 ft 362 kts 129°
2026-04-30 06:57 52.21006 5.41672 20434 ft 365 kts 129°
2026-04-30 06:57 52.19314 5.44784 20916 ft 369 kts 129°
2026-04-30 06:57 52.17602 5.47926 21406 ft 373 kts 129°
2026-04-30 06:58 52.15873 5.51095 21889 ft 376 kts 129°
2026-04-30 06:58 52.14125 5.54295 22358 ft 380 kts 129°
2026-04-30 06:58 52.12360 5.57524 22815 ft 384 kts 129°
2026-04-30 06:58 52.10577 5.60784 23274 ft 387 kts 129°
2026-04-30 06:59 52.08778 5.64065 23735 ft 391 kts 129°
2026-04-30 06:59 52.06962 5.67375 24160 ft 394 kts 129°
2026-04-30 06:59 52.05131 5.70707 24554 ft 396 kts 129°
2026-04-30 06:59 52.03292 5.74055 24973 ft 398 kts 129°
2026-04-30 07:00 52.01444 5.77413 25368 ft 400 kts 129°
2026-04-30 07:00 51.99585 5.80782 25774 ft 401 kts 129°
2026-04-30 07:00 51.97719 5.84163 26173 ft 403 kts 129°
2026-04-30 07:00 51.95845 5.87552 26582 ft 405 kts 129°
2026-04-30 07:01 51.93956 5.90949 26953 ft 407 kts 129°
2026-04-30 07:01 51.92049 5.94367 27235 ft 411 kts 129°
2026-04-30 07:01 51.90111 5.97831 27415 ft 418 kts 129°
2026-04-30 07:01 51.88138 6.01349 27560 ft 426 kts 129°
2026-04-30 07:02 51.86135 6.04909 27811 ft 430 kts 129°
2026-04-30 07:02 51.84121 6.08511 28132 ft 432 kts 129°
2026-04-30 07:02 51.82121 6.12154 28465 ft 434 kts 128°
2026-04-30 07:02 51.80127 6.15824 28796 ft 435 kts 128°
2026-04-30 07:03 51.78132 6.19509 29113 ft 437 kts 128°
2026-04-30 07:03 51.76127 6.23210 29430 ft 438 kts 128°
2026-04-30 07:03 51.74138 6.26868 29734 ft 440 kts 128°
2026-04-30 07:03 51.72112 6.30578 30045 ft 442 kts 128°
2026-04-30 07:04 51.70072 6.34299 30315 ft 444 kts 128°
2026-04-30 07:04 51.68013 6.38031 30573 ft 446 kts 128°
2026-04-30 07:04 51.65952 6.41758 30920 ft 445 kts 128°
2026-04-30 07:04 51.63899 6.45468 31280 ft 443 kts 128°
2026-04-30 07:05 51.59817 6.52852 32068 ft 439 kts 128°
2026-04-30 07:05 51.57793 6.56516 32453 ft 437 kts 128°
2026-04-30 07:05 51.55775 6.60166 32819 ft 436 kts 128°
2026-04-30 07:06 51.53763 6.63795 33182 ft 434 kts 128°
2026-04-30 07:06 51.51754 6.67410 33544 ft 433 kts 128°
2026-04-30 07:06 51.49751 6.71011 33908 ft 432 kts 128°
2026-04-30 07:06 51.47753 6.74596 34280 ft 430 kts 128°
2026-04-30 07:07 51.45754 6.78168 34571 ft 431 kts 128°
2026-04-30 07:07 51.43751 6.81739 34829 ft 431 kts 128°
2026-04-30 07:07 51.41732 6.85290 35079 ft 432 kts 130°
2026-04-30 07:07 51.39466 6.88478 35331 ft 437 kts 139°
2026-04-30 07:08 51.36919 6.91165 35590 ft 440 kts 143°
2026-04-30 07:08 51.34329 6.93762 35852 ft 439 kts 143°
2026-04-30 07:08 51.31747 6.96360 36091 ft 438 kts 143°
2026-04-30 07:08 51.29165 6.98960 36331 ft 438 kts 143°
2026-04-30 07:09 51.26585 7.01553 36547 ft 438 kts 143°
2026-04-30 07:09 51.24003 7.04143 36761 ft 438 kts 143°
2026-04-30 07:09 51.21421 7.06730 36972 ft 438 kts 143°
2026-04-30 07:09 51.18838 7.09317 37166 ft 439 kts 143°
2026-04-30 07:10 51.16254 7.11900 37366 ft 439 kts 143°
2026-04-30 07:10 51.13662 7.14488 37432 ft 441 kts 143°
2026-04-30 07:10 51.08451 7.19678 37423 ft 442 kts 143°
2026-04-30 07:11 51.03230 7.24857 37429 ft 442 kts 143°
2026-04-30 07:11 50.98012 7.30026 37431 ft 442 kts 143°
2026-04-30 07:12 50.92791 7.35179 37432 ft 442 kts 143°
2026-04-30 07:12 50.87568 7.40322 37430 ft 442 kts 143°
2026-04-30 07:13 50.82338 7.45448 37429 ft 442 kts 143°
2026-04-30 07:13 50.77144 7.50537 37413 ft 442 kts 143°
2026-04-30 07:14 50.71907 7.55661 37417 ft 443 kts 143°
2026-04-30 07:14 50.66726 7.60920 37410 ft 443 kts 142°
2026-04-30 07:15 50.61601 7.66310 37427 ft 443 kts 141°
2026-04-30 07:15 50.56462 7.71688 37427 ft 444 kts 142°
2026-04-30 07:16 50.51295 7.77011 37424 ft 444 kts 142°
2026-04-30 07:16 50.46118 7.82316 37433 ft 444 kts 142°
2026-04-30 07:17 50.40941 7.87606 37426 ft 444 kts 142°
2026-04-30 07:18 50.34007 7.94679 37431 ft 445 kts 142°
2026-04-30 07:18 50.28817 7.99964 37420 ft 445 kts 142°
2026-04-30 07:19 50.23619 8.05239 37415 ft 446 kts 142°
2026-04-30 07:19 50.18412 8.10499 37412 ft 446 kts 142°
2026-04-30 07:20 50.13150 8.15653 37411 ft 449 kts 148°
2026-04-30 07:20 50.07511 8.19786 37414 ft 451 kts 150°
2026-04-30 07:21 50.01819 8.23909 37434 ft 451 kts 150°
2026-04-30 07:21 49.96121 8.28010 37415 ft 452 kts 150°
2026-04-30 07:22 49.87552 8.34146 37414 ft 452 kts 150°
2026-04-30 07:22 49.81842 8.38236 37405 ft 452 kts 150°
2026-04-30 07:23 49.76130 8.42322 37402 ft 452 kts 150°
2026-04-30 07:23 49.70416 8.46388 37401 ft 452 kts 150°
2026-04-30 07:24 49.64697 8.50445 37407 ft 452 kts 150°
2026-04-30 07:24 49.58975 8.54494 37419 ft 452 kts 150°
2026-04-30 07:25 49.53259 8.58541 37419 ft 452 kts 150°
2026-04-30 07:25 49.47544 8.62576 37419 ft 452 kts 150°
2026-04-30 07:26 49.41825 8.66590 37426 ft 452 kts 150°
2026-04-30 07:26 49.36100 8.70594 37412 ft 452 kts 151°
2026-04-30 07:27 49.30384 8.74593 37395 ft 452 kts 150°
2026-04-30 07:27 49.24699 8.78556 37376 ft 452 kts 151°
2026-04-30 07:28 49.18937 8.82568 37359 ft 452 kts 150°
2026-04-30 07:28 49.13217 8.86540 37370 ft 452 kts 151°
2026-04-30 07:29 49.07484 8.90502 37326 ft 453 kts 151°
2026-04-30 07:29 49.01741 8.94471 37322 ft 453 kts 151°
2026-04-30 07:30 48.93108 9.00417 37321 ft 454 kts 151°
2026-04-30 07:31 48.87347 9.04375 37319 ft 455 kts 152°
2026-04-30 07:31 48.81578 9.08311 37321 ft 455 kts 152°
2026-04-30 07:32 48.75803 9.12248 37323 ft 455 kts 152°
2026-04-30 07:32 48.70029 9.16183 37327 ft 455 kts 152°
2026-04-30 07:33 48.64241 9.20108 37332 ft 456 kts 152°
2026-04-30 07:33 48.58443 9.24030 37322 ft 457 kts 152°
2026-04-30 07:34 48.52638 9.27962 37316 ft 458 kts 152°
2026-04-30 07:34 48.46823 9.31883 37304 ft 458 kts 152°
2026-04-30 07:35 48.41040 9.35766 37309 ft 458 kts 152°
2026-04-30 07:35 48.35213 9.39667 37313 ft 458 kts 152°
2026-04-30 07:36 48.29383 9.43566 37322 ft 459 kts 152°
2026-04-30 07:36 48.23869 9.48205 37338 ft 451 kts 137°
2026-04-30 07:37 48.19025 9.54174 37316 ft 451 kts 136°
2026-04-30 07:37 48.14162 9.60150 37311 ft 453 kts 136°
2026-04-30 07:38 48.09281 9.66113 37313 ft 453 kts 136°
2026-04-30 07:38 48.04395 9.72068 37311 ft 453 kts 136°
2026-04-30 07:39 47.99509 9.78028 37302 ft 454 kts 137°
2026-04-30 07:39 47.94617 9.83993 37308 ft 455 kts 137°
2026-04-30 07:40 47.89710 9.89967 37297 ft 456 kts 137°
2026-04-30 07:40 47.84795 9.95932 37293 ft 456 kts 137°
2026-04-30 07:41 47.79858 10.01881 37275 ft 457 kts 137°
2026-04-30 07:41 47.74910 10.07825 37260 ft 458 kts 137°
2026-04-30 07:42 47.69958 10.13790 37286 ft 459 kts 137°
2026-04-30 07:42 47.64989 10.19756 37260 ft 460 kts 137°
2026-04-30 07:43 47.60002 10.25719 37254 ft 461 kts 137°
2026-04-30 07:43 47.54937 10.31551 37249 ft 464 kts 143°
2026-04-30 07:44 47.49529 10.36783 37247 ft 465 kts 144°
2026-04-30 07:44 47.44125 10.42033 37257 ft 465 kts 144°
2026-04-30 07:45 47.38714 10.47279 37272 ft 465 kts 144°
2026-04-30 07:45 47.33303 10.52501 37257 ft 465 kts 144°
2026-04-30 07:46 47.27918 10.57693 37246 ft 466 kts 144°
2026-04-30 07:46 47.22609 10.63142 37260 ft 465 kts 142°
2026-04-30 07:47 47.17376 10.68762 37268 ft 465 kts 141°
2026-04-30 07:47 47.12130 10.74340 37270 ft 466 kts 142°
2026-04-30 07:48 47.06850 10.79846 37294 ft 466 kts 143°
2026-04-30 07:48 47.01552 10.85336 37286 ft 467 kts 143°
2026-04-30 07:49 46.96247 10.90848 37281 ft 468 kts 143°
2026-04-30 07:49 46.90932 10.96360 37273 ft 468 kts 143°
2026-04-30 07:50 46.85615 11.01861 37274 ft 468 kts 143°
2026-04-30 07:50 46.80472 11.07685 37279 ft 467 kts 133°
2026-04-30 07:51 46.76020 11.14589 37263 ft 467 kts 131°
2026-04-30 07:51 46.71571 11.21510 37255 ft 468 kts 131°
2026-04-30 07:52 46.67110 11.28424 37266 ft 469 kts 131°
2026-04-30 07:52 46.62637 11.35345 37268 ft 469 kts 131°
2026-04-30 07:53 46.58162 11.42269 37278 ft 470 kts 131°
2026-04-30 07:53 46.53667 11.49194 37261 ft 471 kts 131°
2026-04-30 07:54 46.49157 11.56122 37267 ft 473 kts 132°
2026-04-30 07:54 46.44633 11.63040 37268 ft 473 kts 132°
2026-04-30 07:55 46.40098 11.69947 37298 ft 473 kts 132°
2026-04-30 07:55 46.35522 11.76810 37299 ft 474 kts 133°
2026-04-30 07:56 46.30861 11.83575 37294 ft 475 kts 133°
2026-04-30 07:56 46.26160 11.90326 37294 ft 477 kts 133°
2026-04-30 07:57 46.21464 11.97102 37299 ft 477 kts 133°
2026-04-30 07:57 46.16774 12.03894 37338 ft 478 kts 133°
2026-04-30 07:58 46.12083 12.10691 37319 ft 479 kts 133°
2026-04-30 07:58 46.07370 12.17476 37324 ft 479 kts 134°
2026-04-30 07:59 46.02636 12.24250 37324 ft 480 kts 134°
2026-04-30 07:59 45.97903 12.31018 37325 ft 480 kts 134°
2026-04-30 08:00 45.90791 12.41157 37338 ft 480 kts 134°
2026-04-30 08:00 45.86042 12.47912 37318 ft 481 kts 134°
2026-04-30 08:01 45.81282 12.54671 37312 ft 482 kts 134°
2026-04-30 08:01 45.76509 12.61421 37312 ft 482 kts 134°
2026-04-30 08:02 45.70142 12.70403 37329 ft 483 kts 134°
2026-04-30 08:03 45.60545 12.83869 37308 ft 483 kts 134°
2026-04-30 08:04 45.55737 12.90584 37318 ft 483 kts 134°
2026-04-30 08:04 45.50934 12.97297 37335 ft 484 kts 135°
2026-04-30 08:05 45.46120 13.04017 37319 ft 484 kts 135°
2026-04-30 08:05 45.41293 13.10718 37293 ft 485 kts 135°
2026-04-30 08:06 45.36442 13.17416 37282 ft 487 kts 135°
2026-04-30 08:06 45.31576 13.24124 37288 ft 487 kts 135°
2026-04-30 08:07 45.26922 13.31114 37320 ft 487 kts 130°
2026-04-30 08:07 45.22539 13.38429 37315 ft 486 kts 129°
2026-04-30 08:08 45.18168 13.45737 37315 ft 485 kts 130°
2026-04-30 08:08 45.13716 13.52929 37284 ft 486 kts 131°
2026-04-30 08:09 45.09214 13.60070 37295 ft 486 kts 132°
2026-04-30 08:09 45.04712 13.67211 37282 ft 487 kts 132°
2026-04-30 08:10 45.00217 13.74376 37275 ft 487 kts 131°
2026-04-30 08:10 44.95753 13.81494 37281 ft 487 kts 132°
2026-04-30 08:11 44.91243 13.88642 37280 ft 488 kts 132°
2026-04-30 08:11 44.86708 13.95778 37267 ft 489 kts 133°
2026-04-30 08:12 44.82086 14.02827 37263 ft 490 kts 134°
2026-04-30 08:12 44.77438 14.09840 36873 ft 489 kts 133°
2026-04-30 08:12 44.75121 14.13347 36174 ft 490 kts 133°
2026-04-30 08:13 44.72804 14.16865 35481 ft 491 kts 134°
2026-04-30 08:13 44.70483 14.20391 34770 ft 492 kts 134°
2026-04-30 08:13 44.68158 14.23928 34026 ft 493 kts 134°
2026-04-30 08:13 44.65827 14.27472 33123 ft 495 kts 134°
2026-04-30 08:14 44.63484 14.31028 32263 ft 497 kts 134°
2026-04-30 08:14 44.61129 14.34595 31415 ft 498 kts 134°
2026-04-30 08:14 44.58776 14.38150 30783 ft 495 kts 134°
2026-04-30 08:14 44.56441 14.41667 30185 ft 490 kts 134°
2026-04-30 08:15 44.54126 14.45148 29509 ft 486 kts 134°
2026-04-30 08:15 44.51735 14.48452 28851 ft 480 kts 141°
2026-04-30 08:15 44.49207 14.51466 28240 ft 475 kts 142°
2026-04-30 08:15 44.46700 14.54447 27650 ft 470 kts 141°
2026-04-30 08:16 44.44219 14.57396 27027 ft 466 kts 142°
2026-04-30 08:16 44.41760 14.60320 26410 ft 463 kts 142°
2026-04-30 08:16 44.39320 14.63224 25836 ft 459 kts 141°
2026-04-30 08:16 44.36903 14.66098 25279 ft 454 kts 141°
2026-04-30 08:17 44.34504 14.68948 24875 ft 452 kts 141°
2026-04-30 08:17 44.32116 14.71784 24610 ft 449 kts 141°
2026-04-30 08:17 44.29740 14.74603 24374 ft 448 kts 141°
2026-04-30 08:17 44.27366 14.77411 24134 ft 446 kts 141°
2026-04-30 08:18 44.25005 14.80199 23907 ft 444 kts 141°
2026-04-30 08:18 44.22651 14.82975 23650 ft 442 kts 141°
2026-04-30 08:18 44.20306 14.85734 23355 ft 441 kts 141°
2026-04-30 08:18 44.17967 14.88486 23080 ft 439 kts 141°
2026-04-30 08:19 44.15641 14.91225 22805 ft 437 kts 141°
2026-04-30 08:19 44.13325 14.93953 22541 ft 435 kts 141°
2026-04-30 08:19 44.11019 14.96667 22269 ft 433 kts 141°
2026-04-30 08:19 44.08719 14.99364 22021 ft 432 kts 141°
2026-04-30 08:20 44.06423 15.02051 21752 ft 431 kts 141°
2026-04-30 08:20 44.04135 15.04727 21488 ft 429 kts 141°
2026-04-30 08:20 44.01856 15.07394 21232 ft 427 kts 141°
2026-04-30 08:20 43.99588 15.10049 20971 ft 426 kts 141°
2026-04-30 08:21 43.97327 15.12688 20692 ft 424 kts 141°
2026-04-30 08:21 43.95074 15.15314 20425 ft 419 kts 141°
2026-04-30 08:21 43.92855 15.17900 19985 ft 415 kts 141°
2026-04-30 08:21 43.90668 15.20489 19503 ft 412 kts 140°
2026-04-30 08:22 43.88507 15.23080 19010 ft 410 kts 140°
2026-04-30 08:22 43.86361 15.25664 18522 ft 408 kts 140°
2026-04-30 08:22 43.84226 15.28239 17969 ft 406 kts 140°
2026-04-30 08:22 43.82105 15.30795 17474 ft 403 kts 139°
2026-04-30 08:23 43.79993 15.33329 16972 ft 400 kts 139°
2026-04-30 08:23 43.77893 15.35839 16467 ft 398 kts 139°
2026-04-30 08:23 43.75804 15.38332 15954 ft 395 kts 139°
2026-04-30 08:23 43.73726 15.40806 15455 ft 393 kts 139°
2026-04-30 08:24 43.71687 15.43228 14961 ft 390 kts 138°
2026-04-30 08:24 43.69605 15.45693 14452 ft 388 kts 138°
2026-04-30 08:24 43.67561 15.48113 13946 ft 386 kts 138°
2026-04-30 08:24 43.65530 15.50519 13395 ft 382 kts 137°
2026-04-30 08:25 43.63552 15.52867 12900 ft 378 kts 137°
2026-04-30 08:25 43.61567 15.55221 12379 ft 374 kts 137°
2026-04-30 08:25 43.59603 15.57548 11864 ft 371 kts 137°
2026-04-30 08:25 43.57656 15.59852 11341 ft 367 kts 137°
2026-04-30 08:26 43.55724 15.62135 10820 ft 364 kts 137°
2026-04-30 08:26 43.53829 15.64371 10620 ft 352 kts 137°
2026-04-30 08:26 43.52002 15.66524 10482 ft 339 kts 137°
2026-04-30 08:26 43.50242 15.68595 10361 ft 327 kts 137°
2026-04-30 08:27 43.48542 15.70594 10238 ft 316 kts 137°
2026-04-30 08:27 43.46890 15.72540 9997 ft 309 kts 137°
2026-04-30 08:27 43.45270 15.74449 9432 ft 304 kts 137°
2026-04-30 08:27 43.43663 15.76343 9014 ft 304 kts 136°
2026-04-30 08:28 43.42058 15.78229 8625 ft 303 kts 137°
2026-04-30 08:28 43.40463 15.80097 8274 ft 299 kts 137°
2026-04-30 08:28 43.38898 15.81959 7931 ft 295 kts 135°
2026-04-30 08:28 43.37392 15.83901 7394 ft 299 kts 133°
2026-04-30 08:29 43.35936 15.85871 6993 ft 289 kts 132°
2026-04-30 08:29 43.34524 15.87808 6329 ft 286 kts 132°
2026-04-30 08:29 43.33251 15.89839 5711 ft 274 kts 115°
2026-04-30 08:29 43.32740 15.92262 5123 ft 260 kts 88°
2026-04-30 08:30 43.33089 15.94597 4841 ft 245 kts 63°
2026-04-30 08:30 43.34061 15.96425 4694 ft 232 kts 46°
2026-04-30 08:30 43.35157 15.97967 4586 ft 220 kts 46°
2026-04-30 08:30 43.36197 15.99427 4485 ft 208 kts 46°
2026-04-30 08:31 43.37199 16.00832 4397 ft 204 kts 46°
2026-04-30 08:31 43.38215 16.02135 4299 ft 196 kts 45°
2026-04-30 08:31 43.39117 16.03474 4204 ft 186 kts 50°
2026-04-30 08:31 43.39919 16.04832 4079 ft 182 kts 52°
2026-04-30 08:32 43.40692 16.06189 3893 ft 176 kts 52°
2026-04-30 08:32 43.41408 16.07460 3807 ft 162 kts 52°
2026-04-30 08:32 43.42077 16.08651 3642 ft 152 kts 52°
2026-04-30 08:32 43.42700 16.09761 3471 ft 141 kts 52°
2026-04-30 08:33 43.43283 16.10802 3296 ft 135 kts 52°
2026-04-30 08:33 43.43857 16.11824 3115 ft 135 kts 52°
2026-04-30 08:33 43.44427 16.12843 2934 ft 134 kts 52°
2026-04-30 08:33 43.44998 16.13862 2768 ft 135 kts 52°
2026-04-30 08:34 43.45571 16.14885 2573 ft 136 kts 51°
2026-04-30 08:34 43.46140 16.15903 2407 ft 131 kts 52°
2026-04-30 08:34 43.46696 16.16895 2217 ft 131 kts 52°
2026-04-30 08:34 43.47251 16.17888 2031 ft 131 kts 52°
2026-04-30 08:35 43.47806 16.18881 1850 ft 131 kts 52°
2026-04-30 08:35 43.48358 16.19869 1664 ft 130 kts 51°
2026-04-30 08:35 43.48908 16.20853 1481 ft 132 kts 52°
2026-04-30 08:35 43.49455 16.21830 1332 ft 128 kts 53°
2026-04-30 08:36 43.50006 16.22821 1212 ft 135 kts 54°
2026-04-30 08:36 43.50584 16.23869 952 ft 138 kts 54°
2026-04-30 08:36 43.51147 16.24879 771 ft 127 kts 54°
2026-04-30 08:36 43.51689 16.25850 624 ft 130 kts 54°
2026-04-30 08:37 43.52248 16.26855 433 ft 135 kts 53°
2026-04-30 08:37 43.52827 16.27879 251 ft 133 kts 55°
2026-04-30 08:37 43.53364 16.28837 97 ft 117 kts 56°
2026-04-30 08:37 43.53791 16.29618 87 ft 74 kts 52°
2026-04-30 08:38 43.53980 16.29956 81 ft 36 kts 52°
2026-04-30 08:38 43.54046 16.30081 71 ft 6 kts 81°
2026-04-30 08:38 43.54012 16.30098 72 ft 6 kts 186°
2026-04-30 08:38 43.53969 16.30082 69 ft 6 kts 195°
2026-04-30 08:39 43.53931 16.30067 67 ft 5 kts 195°
2026-04-30 08:39 43.53905 16.30050 69 ft 4 kts 218°
2026-04-30 08:39 43.53872 16.29999 77 ft 10 kts 231°
2026-04-30 08:39 43.53826 16.29918 82 ft 11 kts 233°
2026-04-30 08:40 43.53781 16.29835 86 ft 10 kts 232°
2026-04-30 08:40 43.53745 16.29770 85 ft 8 kts 232°
2026-04-30 08:40 43.53703 16.29776 84 ft 4 kts 123°
2026-04-30 08:40 43.53691 16.29806 82 ft 0 kts 119°
2026-04-30 08:41 43.53691 16.29807 82 ft 0 kts 119°